HST,Max TemperatureF,Mean TemperatureF,Min TemperatureF,Max Dew PointF,MeanDew PointF,Min DewpointF,Max Humidity, Mean Humidity, Min Humidity, Max Sea Level PressureIn, Mean Sea Level PressureIn, Min Sea Level PressureIn, Max VisibilityMiles, Mean VisibilityMiles, Min VisibilityMiles, Max Wind SpeedMPH, Mean Wind SpeedMPH, Max Gust SpeedMPH,PrecipitationIn, CloudCover, Events, WindDirDegrees
2013-1-1,81,75,69,67,63,57,76,65,52,30.08,30.02,29.95,10,10,10,17,7,21,0.00,2,,112
2013-1-2,81,75,69,65,63,59,73,63,56,30.02,29.98,29.93,10,10,10,13,6,,0.00,3,,146
2013-1-3,82,76,71,66,64,59,76,66,58,30.02,29.97,29.94,10,10,10,12,5,,0.00,2,,171
2013-1-4,81,75,69,65,63,59,75,66,58,30.05,30.01,29.97,10,10,10,12,6,,0.00,2,,151
2013-1-5,81,76,72,67,64,60,73,66,60,30.08,30.03,29.99,10,10,10,13,8,,0.00,1,,159
2013-1-6,80,74,68,64,61,57,68,62,56,30.10,30.03,29.98,10,10,10,12,7,,0.00,2,,161
2013-1-7,81,75,69,66,62,57,73,64,54,30.04,29.98,29.92,10,10,10,12,6,,0.00,3,,174
2013-1-8,80,74,68,63,60,57,70,60,52,29.95,29.92,29.86,10,10,10,10,6,,0.00,2,,173
2013-1-9,80,74,69,65,61,54,68,62,50,29.98,29.93,29.86,10,10,10,9,6,,0.00,1,Rain,161
2013-1-10,80,74,69,66,63,58,73,66,58,29.97,29.92,29.88,10,10,10,12,5,,0.00,1,,137
2013-1-11,78,71,19,65,62,55,90,72,60,29.93,29.88,29.84,10,10,10,10,7,,0.00,0,,136
2013-1-12,46,4,-38,,,,,,,29.97,29.93,29.89,10,10,10,9,6,,0.00,1,,355
2013-1-13,80,20,-41,68,67,66,78,67,61,29.99,29.95,29.90,10,10,10,13,5,,0.00,1,,11
2013-1-14,82,20,-42,70,67,59,78,68,61,29.98,29.93,29.86,10,10,10,12,7,,0.00,2,,195
2013-1-15,78,74,71,70,68,66,94,77,67,29.94,29.90,29.86,10,10,10,10,7,,0.03,7,Rain,296
2013-1-16,78,74,69,66,65,64,84,73,65,29.94,29.90,29.84,10,10,10,14,5,,0.00,2,Rain,12
2013-1-17,78,72,66,64,62,61,83,66,54,29.91,29.87,29.82,10,10,10,8,4,,0.00,1,,7
2013-1-18,79,74,68,63,61,58,78,65,50,29.93,29.88,29.82,10,10,10,13,7,,0.00,1,,352
2013-1-19,80,78,75,58,53,49,48,41,35,29.98,29.92,29.88,10,10,10,28,13,34,0.00,0,,2
2013-1-20,78,70,64,59,57,55,73,56,50,30.04,29.98,29.94,10,10,10,22,10,23,0.00,1,,33
2013-1-21,78,73,68,63,60,56,68,60,54,30.09,30.03,29.98,10,10,10,20,11,30,0.00,1,Rain,164
2013-1-22,78,73,68,62,60,57,73,61,53,30.10,30.05,30.01,10,10,10,10,7,,0.00,0,,150
2013-1-23,78,72,66,64,62,59,78,67,56,30.04,30.01,29.98,10,10,10,10,3,,0.00,3,,210
2013-1-24,80,74,68,65,63,58,71,66,60,30.06,30.02,29.98,10,10,10,10,5,,0.00,4,,168
2013-1-25,81,74,68,66,63,61,78,69,60,30.06,30.02,29.98,10,10,10,12,6,,0.00,1,,97
2013-1-26,81,75,69,66,62,57,81,66,53,30.04,29.98,29.93,10,10,10,14,7,,0.00,0,,34
2013-1-27,81,74,68,64,61,57,71,62,49,30.00,29.95,29.89,10,10,10,12,5,,0.00,2,,33
2013-1-28,81,76,70,64,60,57,65,58,49,29.98,29.93,29.88,10,10,10,14,5,,0.00,3,Rain,138
2013-1-29,79,74,69,68,66,60,93,79,62,30.03,29.97,29.91,10,9,4,12,6,,0.77,7,Rain,351
2013-1-30,80,74,68,67,66,61,96,81,54,30.07,30.02,29.99,10,9,5,12,6,,0.70,7,Rain,9
2013-1-31,79,74,68,68,65,62,81,73,66,30.07,30.03,29.98,10,10,10,9,6,,0.00,2,,139